Location: ActonStarParty
(42.4766°N, 71.4538°W)
Time: 04:45:11
(UTC-04:00)

Daily predictions for brighter satellites

Satellite Brightness Start Highest point End
(mag) Time Altitude Azimuth Time Altitude Azimuth Time Altitude Azimuth
Okean 3 Rocket 4.5 00:04:23 38° W 00:04:49 39° WNW 00:09:00 10° N
Lacrosse 5 rocket 4.4 00:03:09 10° NNW 00:05:34 15° NNE 00:08:04 10° NE
Cosmos 2228 Rocket 3.5 00:01:29 10° N 00:05:33 54° ENE 00:05:33 54° ENE
NOSS 3-2 (A) 3.5 00:05:22 44° SW 00:07:31 83° NW 00:14:14 10° NE
Cosmos 1943 Rocket 4.1 00:04:49 10° WNW 00:08:01 16° W 00:09:02 15° WSW
Cosmos 1833 Rocket 3.9 00:08:55 27° E 00:08:55 27° E 00:13:17 10° NE
Terra 4.1 00:10:21 12° WSW 00:11:22 13° W 00:13:35 10° WNW
Cosmos 1707 4.0 00:12:54 34° WNW 00:12:54 34° WNW 00:16:22 10° N
Cosmos 1486 Rocket 3.8 00:22:41 81° SSW 00:22:58 90° ESE 00:28:13 10° NNE
Helios 1A Rocket 3.6 00:19:54 10° NNE 00:23:06 48° NE 00:23:06 48° NE
Cosmos 1656 4.4 00:19:04 10° NNW 00:24:35 47° ENE 00:26:11 37° ESE
Cosmos 1408 Rocket 4.1 00:25:50 52° WNW 00:25:50 52° WNW 00:30:10 10° N
Lacrosse 5 3.1 00:21:27 10° NW 00:26:11 37° NNE 00:29:12 20° E
ALOS 2 2.8 00:27:55 63° WNW 00:27:55 63° WNW 00:31:52 10° NNW
Meteor 1-24 Rocket 4.2 00:29:45 45° WSW 00:31:10 57° WNW 00:37:00 10° N
Cosmos 1378 4.2 00:33:25 44° NNW 00:33:25 44° NNW 00:36:20 10° N
Cosmos 1763 Rocket 3.4 00:29:16 10° NNW 00:34:36 79° ENE 00:35:02 73° ESE
Cosmos 1818 3.6 00:31:45 10° NW 00:37:07 62° WSW 00:37:07 62° WSW
CZ-2C R/B 3.1 00:33:11 10° NNE 00:38:30 46° E 00:38:49 45° ESE
Cosmos 1553 Rocket 4.2 00:34:54 10° NNW 00:41:08 59° W 00:42:23 50° SW
Cosmos 1151 Rocket 3.8 00:38:03 10° N 00:41:52 43° ENE 00:41:52 43° ENE
CZ-4B R/B 3.2 00:44:24 31° NW 00:44:24 31° NW 00:46:44 10° NNW
In-Cosmos 22 4.0 00:51:05 71° SSW 00:51:43 84° W 00:57:26 10° N
Cosmos 1066 4.5 00:52:20 72° SW 00:52:53 82° W 00:58:22 10° N
Cosmos 1743 Rocket 4.0 00:54:24 54° WNW 00:54:24 54° WNW 00:58:32 10° N
Cosmos 2322 Rocket 4.5 00:52:08 10° N 00:56:07 19° NE 01:00:03 10° E
H-2A R/B 3.9 00:55:46 10° N 00:58:50 26° WNW 00:58:50 26° WNW
Cosmos 2344 3.6 00:56:45 45° SSW 00:59:36 86° SE 01:08:28 10° NE
CENTAUR R/B 2.7 01:03:42 51° SE 01:04:22 53° ESE 01:10:56 10° NE
Cosmos 2315 Rocket 4.0 00:59:04 10° N 01:05:25 80° E 01:06:49 57° SSE
Aureole 1 Rocket 3.9 01:01:47 10° NNW 01:06:30 61° ENE 01:07:50 48° ESE
Cosmos 2369 4.3 01:01:34 10° NW 01:06:47 42° WSW 01:06:47 42° WSW
Cosmos 2266 Rocket 4.1 01:05:52 53° SW 01:07:18 69° W 01:13:43 10° N
Cosmos 1500 Rocket 4.1 01:11:27 51° WNW 01:11:27 51° WNW 01:15:20 10° N
Cosmos 1354 Rocket 4.1 01:10:42 59° WSW 01:11:20 65° WNW 01:16:38 10° NNE
Cosmos 1867 4.3 01:11:27 37° W 01:13:05 49° NW 01:18:25 10° NNE
Meteor 1-21 Rocket 4.4 01:12:13 55° WSW 01:13:08 62° WNW 01:18:46 10° N
Cosmos 841 Rocket 3.8 01:10:41 10° NNW 01:15:38 50° W 01:15:38 50° W
Cosmos 1503 Rocket 4.2 01:15:53 56° WSW 01:16:36 62° WNW 01:21:53 10° NNE
USA 32 4.0 01:16:09 10° N 01:21:25 73° E 01:22:05 63° SE
Cosmos 332 Rocket 4.5 01:17:37 10° N 01:22:17 48° ENE 01:23:19 41° ESE
ISS -0.8 01:20:32 10° NW 01:23:12 22° NNE 01:25:50 10° ENE
Cosmos 1980 Rocket 2.3 01:19:46 10° NNW 01:25:24 68° ENE 01:27:03 46° SE
Meteor 2-11 Rocket 4.4 01:23:05 10° N 01:29:16 78° E 01:30:54 51° SSE
PSLV R/B 4.1 01:30:09 70° NW 01:30:09 70° NW 01:33:54 10° NNW
ASTEX 1 3.4 01:25:01 10° NNE 01:29:58 65° E 01:30:25 62° SE
Cosmos 1908 4.4 01:28:14 10° NNW 01:30:52 35° NW 01:30:52 35° NW
ERS-2 4.5 01:31:45 10° NE 01:33:56 16° E 01:33:56 16° E
CZ-4C R/B 4.1 01:30:34 11° W 01:34:58 26° NW 01:40:08 10° NNE
Cosmos 783 Rocket 4.4 01:33:05 10° NNW 01:38:24 80° WSW 01:38:58 69° SSW
CZ-2C R/B 3.1 01:40:06 61° SSW 01:40:57 72° WSW 01:46:42 10° NNW
Cosmos 1300 3.1 01:37:30 10° N 01:40:54 59° NE 01:40:54 59° NE
Cosmos 1697 Rocket 2.8 01:39:25 10° NNW 01:44:55 52° WSW 01:45:14 52° WSW
Lacrosse 5 rocket 2.5 01:41:36 10° NW 01:45:46 45° NE 01:50:02 10° ESE
Cosmos 2082 Rocket 3.2 01:45:38 30° W 01:47:30 38° WNW 01:52:48 10° N
Cosmos 1538 Rocket 4.4 01:44:38 10° NNW 01:49:49 61° ENE 01:51:44 37° SE
PSLV R/B 4.0 01:47:44 10° NNE 01:52:13 54° E 01:52:37 52° ESE
Cosmos 1833 Rocket 3.4 01:50:36 35° W 01:52:16 44° WNW 01:57:40 10° NNE
Cosmos 1437 Rocket 4.2 01:50:23 10° NNW 01:52:51 27° WNW 01:52:51 27° WNW
ATLAS 5 CENTAUR R/B 3.6 01:55:46 19° ESE 01:56:23 20° ESE 02:00:00 10° ENE
SL-08 R/B 4.3 01:56:08 51° S 01:57:50 89° W 02:04:00 10° N
Cosmos 2058 3.1 01:58:15 62° WNW 01:58:15 62° WNW 02:02:16 10° N
Cosmos 1726 2.4 01:56:25 10° N 01:59:42 67° N 01:59:42 67° N
Cosmos 1805 Rocket 3.7 02:02:19 56° W 02:02:27 57° W 02:06:50 10° N
Cosmos 1455 3.7 02:04:56 10° NNE 02:08:19 30° ENE 02:09:24 25° ESE
Lacrosse 5 2.4 02:04:23 10° WNW 02:08:18 41° W 02:08:18 41° W
Cosmos 1633 Rocket 2.9 02:08:56 73° SW 02:09:16 80° W 02:13:43 10° N
Abrixas 4.5 02:09:58 25° NNW 02:10:35 28° N 02:13:19 10° NE
Cosmos 2242 Rocket 3.4 02:08:04 10° N 02:12:29 82° W 02:12:53 73° SSW
Cosmos 371 Rocket 3.2 02:07:59 10° NNW 02:12:52 85° WSW 02:13:50 58° S
Cosmos 540 Rocket 4.0 02:09:39 10° NW 02:14:28 40° WSW 02:14:31 40° WSW
Cosmos 2151 4.5 02:16:00 24° WNW 02:16:09 24° WNW 02:19:38 10° NNW
Cosmos 1707 Rocket 4.1 02:12:09 10° NNW 02:16:06 42° W 02:16:06 42° W
Landsat 4 3.7 02:16:46 68° WNW 02:16:46 68° WNW 02:20:12 10° NNW
Cosmos 2360 4.2 02:11:28 10° NNW 02:17:08 67° WSW 02:18:43 46° S
CZ-2C R/B 4.1 02:13:59 10° N 02:18:28 26° WNW 02:20:21 21° W
Cosmos 1666 Rocket 3.9 02:19:35 48° W 02:19:51 49° WNW 02:24:04 10° N
USA 215 3.5 02:15:19 10° NE 02:21:42 54° SE 02:24:05 37° S
Cosmos 1626 3.1 02:21:49 35° ESE 02:22:24 38° E 02:25:54 10° NNE
SL-16 R/B 2.2 02:24:13 10° NNW 02:29:55 85° ENE 02:33:31 24° SSE
Cosmos 1470 Rocket 3.5 02:29:39 56° S 02:30:34 85° E 02:35:00 10° N
Cosmos 1933 Rocket 3.4 02:34:01 56° S 02:34:56 89° WSW 02:39:23 10° N
ADEOS 4.2 02:33:34 10° NNE 02:38:38 48° E 02:41:14 26° SSE
Cosmos 2322 Rocket 2.1 02:35:09 10° NNW 02:40:47 74° WSW 02:43:42 29° S
SL-14 R/B 4.4 02:43:23 28° W 02:43:30 28° WNW 02:46:53 10° NNW
AQUA 3.8 02:39:11 10° NNE 02:43:58 76° ESE 02:45:44 39° S
Sich 1 4.2 02:46:25 28° W 02:47:07 30° WNW 02:51:02 10° NNW
Cosmos 1869 3.2 02:46:47 10° N 02:50:47 85° E 02:52:04 42° SSE
Cosmos 1703 4.0 02:54:37 35° W 02:55:09 37° WNW 02:58:51 10° N
CENTAUR R/B 3.7 02:50:51 16° W 02:55:19 36° NW 03:01:45 10° NNE
Cosmos 2112 Rocket 4.2 02:51:58 10° NNW 02:57:10 72° ENE 03:02:21 10° SSE
Cosmos 1271 Rocket 2.9 02:54:12 10° NNW 02:57:51 47° W 02:58:10 46° WSW
CZ-2D R/B 3.6 02:53:29 10° NE 02:58:03 29° E 03:02:38 10° SSE
ISS -3.5 02:56:42 10° WNW 02:59:58 86° SW 03:03:13 10° SE
H-2A ROCKET BODY 3.9 03:05:02 10° SSE 03:05:02 10° SSE 02:52:38 10° WSW
Cosmos 968 Rocket 4.4 02:59:41 26° WSW 03:01:43 36° WNW 03:06:29 10° N
USA 161 1.6 03:03:30 54° ENE 03:03:30 54° ENE 03:05:43 10° N
SL-16 R/B 3.3 02:58:16 10° SE 03:04:19 53° ENE 03:10:23 10° N
ERS-2 3.1 03:04:36 10° N 03:08:00 34° WNW 03:08:48 31° W
Cosmos 1709 Rocket 4.1 03:05:16 28° SSW 03:08:42 66° W 03:14:56 10° N
Cosmos 1980 Rocket 3.8 03:05:15 10° WNW 03:08:45 17° W 03:08:46 17° W
Meteor 1-4 Rocket 3.4 03:05:22 10° NNW 03:08:50 34° W 03:09:08 34° WSW
Cosmos 1862 Rocket 4.0 03:05:32 10° NNW 03:09:47 43° W 03:11:06 34° SW
Cosmos 2360 Rocket 2.4 03:04:31 10° NNW 03:10:10 71° ENE 03:15:47 10° SSE
NPP 4.0 03:05:09 10° N 03:10:23 54° WNW 03:13:03 28° SW
EO 1 Del DPAF 3.9 03:09:01 12° SSE 03:12:31 55° ENE 03:16:22 10° N
Okean O Rocket 4.1 03:13:10 10° NE 03:16:08 17° E 03:19:05 10° SE
SL-08 R/B 4.0 03:18:21 28° SW 03:20:04 37° W 03:24:38 10° NNW
BREEZE-M DEB (TANK) 4.2 03:20:09 10° WNW 03:24:03 61° SSW 03:39:20 10° SE
USA 229 DEB 4.2 03:19:54 19° S 03:24:52 55° ESE 03:31:39 10° NE
Lacrosse 5 rocket 2.3 03:21:07 10° WNW 03:24:57 29° SW 03:25:32 28° SW
USA 229 4.2 03:19:58 18° S 03:24:59 54° ESE 03:31:46 10° NE
USA 129 4.2 03:26:17 15° ENE 03:26:17 15° ENE 03:27:02 10° NNE
Cosmos 1933 3.2 03:23:26 10° NNW 03:27:28 70° W 03:29:57 22° S
CZ-3 Stage 3 3.9 03:18:55 10° WSW 03:28:34 27° SSW 03:31:57 10° SE
Cosmos 2219 3.7 03:25:14 17° S 03:29:37 57° ESE 03:35:15 10° NNE
Cosmos 2322 3.7 03:24:32 10° NNW 03:30:18 82° WSW 03:36:01 10° SSE
ATLAS CENTAUR R/B 2.4 03:26:53 10° NNW 03:31:32 54° NE 03:35:48 10° SE
Meteor 1-26 Rocket 4.3 03:27:50 10° N 03:33:24 77° E 03:38:55 10° SSE
Cosmos 2298 Rocket 4.2 03:30:48 18° S 03:34:46 73° ESE 03:40:07 10° NNE
Centaur D-1A AC-32 4.4 03:32:17 17° SSW 03:35:04 22° SSE 03:45:58 10° ESE
Cosmos 1869 Rocket 3.5 03:33:16 21° SSW 03:36:08 78° W 03:40:35 10° N
Cosmos 2221 Rocket 3.7 03:32:23 10° NNW 03:36:50 61° W 03:40:16 17° S
Spot 4 Rocket 4.2 03:32:15 10° N 03:37:19 60° WNW 03:40:49 20° SSW
ATLAS 5 CENTAUR R/B 2.2 03:37:19 21° WSW 03:40:31 57° NW 03:45:46 10° NNE
GPS 2-05 Rocket1 3.9 03:41:58 24° SSW 03:42:21 24° S 03:45:08 10° SE
Cosmos 1455 3.9 03:41:17 10° NW 03:43:47 17° W 03:44:25 16° W
Cosmos 1680 Rocket 4.1 03:39:12 10° NW 03:43:56 37° WSW 03:47:38 15° SSW
Resurs 1-4 Rocket 2.2 03:39:03 10° NNE 03:44:25 79° ESE 03:49:25 12° S
Abrixas 4.5 03:44:26 10° NW 03:47:14 30° NNE 03:50:02 10° ENE
MOS 1-B 4.5 03:42:11 10° NNE 03:48:00 79° ESE 03:53:46 10° SSW
Cosmos 2333 Rocket 4.3 03:46:47 10° N 03:51:50 31° NE 03:56:52 10° ESE
MTI 3.8 03:51:52 10° S 03:55:13 75° WSW 03:58:36 10° NNW
Cosmos 1626 4.2 03:56:33 12° W 03:58:01 14° WNW 04:00:02 10° NW
ARIANE 5 R/B 2.8 03:56:17 10° N 04:01:14 52° WNW 04:05:28 13° SW
COSMOS 2428 2.7 03:56:56 10° NNW 04:02:39 89° WSW 04:08:20 10° SSE
USA 215 3.8 03:58:23 10° NE 04:04:40 52° NNW 04:10:57 10° WSW
Cosmos 1733 Rocket 3.5 04:03:01 10° S 04:07:17 61° E 04:11:37 10° NNE
IRS-1D 3.9 04:02:08 10° N 04:07:19 53° WNW 04:12:09 11° SW
Cosmos 1892 3.3 04:03:37 10° S 04:07:27 57° E 04:11:15 10° NNE
Thor Agena Rocket 4.0 04:04:33 10° SSE 04:09:47 67° ENE 04:15:03 10° N
SME Rocket 3.6 04:03:35 10° SSE 04:10:03 82° WSW 04:14:29 10° NNW
OAO 3 Rocket 4.3 04:08:11 13° WSW 04:11:19 24° SSW 04:15:05 10° SE
Cosmos 2341 Rocket 4.4 04:05:28 10° S 04:11:43 69° E 04:18:02 10° NNE
SL-16 R/B 3.9 04:10:39 10° WNW 04:13:12 13° W 04:15:18 11° WSW
Cosmos 1898 Rocket 3.6 04:09:12 12° SSW 04:13:56 61° WNW 04:19:05 10° NNE
ASTRO F (AKARI) 4.2 04:12:33 10° S 04:15:46 66° WSW 04:18:55 10° NNW
Coronas F rocket 3.5 04:13:43 10° SSE 04:16:04 26° E 04:18:25 10° NNE
Cosmos 2237 Rocket 3.7 04:11:58 10° NNW 04:17:22 42° ENE 04:22:44 10° SE
BREEZE-M DEB (TANK) 1.3 04:15:39 10° WNW 04:18:34 89° NNW 04:20:48 10° ESE
Cosmos 1937 Rocket 3.6 04:13:32 10° SSW 04:18:51 77° WNW 04:24:10 10° NNE
IRS-1C Rocket 4.1 04:13:52 10° NNE 04:19:12 89° ESE 04:24:29 10° SSW
CZ-2C R/B 3.7 04:15:06 10° S 04:19:36 80° WSW 04:24:12 10° NNW
Nadezhda 3 Rocket 4.0 04:13:57 10° N 04:20:08 83° W 04:26:17 10° S
Cosmos 292 Rocket 3.7 04:16:17 10° NNW 04:21:05 69° WSW 04:25:48 10° S
UNKNOWN OBJECT B 3.1 04:18:41 10° N 04:22:24 51° WNW 04:26:11 10° SSW
Cosmos 389 Rocket 2.6 04:20:40 10° NNW 04:24:19 60° W 04:27:57 10° S
Okean 1-7 4.1 04:20:43 10° NNW 04:24:27 28° W 04:28:09 10° SSW
UNK 4.5 04:20:26 10° SSW 04:24:32 33° W 04:28:40 10° NNW
Cosmos 2237 4.3 04:19:22 10° NNW 04:24:59 58° WSW 04:30:34 10° S
Cosmos 2154 Rocket 4.1 04:19:09 10° SSW 04:25:29 77° W 04:31:52 10° N
Sich 1 Rocket 4.0 04:25:28 10° S 04:29:47 65° E 04:34:09 10° NNE
Cosmos 2219 Rocket 2.4 04:25:48 10° NNW 04:31:25 78° ENE 04:36:59 10° SSE
AVUM R/B 2.3 04:31:24 10° SSW 04:33:28 67° ESE 04:35:36 10° NNE
ISS -1.2 04:35:26 10° WSW 04:35:54 10° SW 04:36:22 10° SW
Meteor 2-3 Rocket 4.2 04:31:01 10° SSW 04:36:36 49° WNW 04:42:14 10° N
CZ-2D R/B 2.9 04:33:23 10° N 04:38:09 36° WNW 04:42:57 10° SW
Meteor 2-6 Rocket 4.2 04:36:18 10° N 04:41:47 89° E 04:47:21 10° S
Meteor 1-27 Rocket 4.4 04:36:36 10° N 04:42:32 67° ENE 04:48:25 10° SSE
